Location: Melbourne
(37.8170°S, 144.9670°E)
Time: 18:58:34
(UTC+10:00)

Transit 2A - All Passes

Search period start: 25 July 2014 00:00
Search period end: 04 August 2014 00:00
Orbit: 603 x 960 km, 66.7° (Epoch: 23 July)

Date Brightness Start Highest point End Pass type
(mag) Time Alt. Az. Time Alt. Az. Time Alt. Az.
25 Jul - 12:12:15 10° NNE 12:17:22 32° ENE 12:22:50 10° SE daylight
25 Jul - 13:54:55 10° WNW 14:00:31 41° SW 14:06:30 10° SSE daylight
25 Jul - 21:01:30 10° S 21:06:20 23° SE 21:10:53 10° E visible
25 Jul - 22:44:05 10° SSW 22:50:13 65° WNW 22:55:47 10° NNE night (unlit)
26 Jul - 11:39:41 10° NNE 11:44:07 23° ENE 11:48:47 10° SE daylight
26 Jul - 13:21:05 10° NW 13:26:54 56° WSW 13:33:10 10° SSE daylight
26 Jul - 15:09:23 10° WSW 15:11:42 12° SW 15:14:03 10° SSW daylight
26 Jul - 20:28:31 10° S 20:32:30 17° SE 20:36:18 10° E visible
26 Jul - 22:10:32 10° SSW 22:16:47 89° ESE 22:22:26 10° NNE visible
26 Jul - 23:56:58 10° W 23:59:00 12° W 00:00:59 10° WNW night (unlit)
27 Jul - 11:07:39 10° NE 11:10:55 15° E 11:14:18 10° ESE daylight
27 Jul - 12:47:26 10° NNW 12:53:21 78° WSW 12:59:44 10° SSE daylight
27 Jul - 14:34:07 10° WSW 14:37:46 16° SW 14:41:31 10° S daylight
27 Jul - 19:55:50 10° SSE 19:58:36 13° SE 20:01:17 10° ESE visible
27 Jul - 21:37:04 10° SSW 21:43:16 64° ESE 21:48:53 10° NE visible
27 Jul - 23:21:55 10° WSW 23:25:50 18° WNW 23:29:33 10° NW night (unlit)
28 Jul - 12:14:00 10° NNW 12:19:52 76° ENE 12:26:14 10° SSE daylight
28 Jul - 13:59:25 10° W 14:03:55 21° SW 14:08:36 10° S daylight
28 Jul - 21:03:42 10° SSW 21:09:40 46° SE 21:15:08 10° NE visible
28 Jul - 22:47:40 10° SW 22:52:37 27° WNW 22:57:13 10° NNW night (unlit)
29 Jul - 11:40:46 10° N 11:46:28 54° ENE 11:52:37 10° SE daylight
29 Jul - 13:25:02 10° WNW 13:30:08 27° SW 13:35:30 10° S daylight
29 Jul - 20:30:25 10° SSW 20:36:00 33° SE 20:41:10 10° ENE visible
29 Jul - 22:13:45 10° SW 22:19:21 39° WNW 22:24:27 10° N visible
30 Jul - 11:07:46 10° N 11:13:07 37° ENE 11:18:51 10° SE daylight
30 Jul - 12:50:53 10° WNW 12:56:25 37° SW 13:02:17 10° SSE daylight
30 Jul - 19:57:14 10° S 20:02:16 25° SE 20:06:59 10° ENE visible
30 Jul - 21:40:01 10° SW 21:46:00 56° WNW 21:51:25 10° N visible
31 Jul - 10:35:03 10° NNE 10:39:51 26° ENE 10:44:55 10° SE daylight
31 Jul - 12:16:58 10° NW 12:22:47 50° WSW 12:28:58 10° SSE daylight
31 Jul - 14:06:12 10° SW 14:07:43 11° SW 14:09:15 10° SSW daylight
31 Jul - 19:24:11 10° S 19:28:28 19° SE 19:32:32 10° E visible
31 Jul - 21:06:25 10° SSW 21:12:35 81° WNW 21:18:09 10° NNE visible
01 Aug - 10:02:46 10° NE 10:06:37 18° ENE 10:10:39 10° ESE daylight
01 Aug - 11:43:15 10° NW 11:49:12 69° WSW 11:55:35 10° SSE daylight
01 Aug - 13:30:30 10° WSW 13:33:46 14° SW 13:37:05 10° S daylight
01 Aug - 18:51:22 10° S 18:54:35 14° SE 18:57:42 10° ESE visible
01 Aug - 20:32:55 10° SSW 20:39:06 73° ESE 20:44:41 10° NE visible
01 Aug - 22:18:16 10° WSW 22:21:32 15° W 22:24:39 10° NW visible
02 Aug - 09:31:24 10° ENE 09:33:27 12° E 09:35:33 10° E daylight
02 Aug - 11:09:44 10° NNW 11:15:42 86° ENE 11:22:06 10° SSE daylight
02 Aug - 12:55:38 10° W 12:59:53 19° SW 13:04:16 10° S daylight
02 Aug - 18:19:14 10° SSE 18:20:38 11° SE 18:22:01 10° SE visible
02 Aug - 19:59:31 10° SSW 20:05:32 52° ESE 20:11:00 10° NE visible
02 Aug - 21:43:48 10° SW 21:48:20 23° WNW 21:52:34 10° NNW visible
03 Aug - 10:36:25 10° NNW 10:42:16 62° ENE 10:48:32 10° SE daylight
03 Aug - 12:21:08 10° WNW 12:26:04 25° SW 12:31:13 10° S daylight
03 Aug - 19:26:12 10° SSW 19:31:54 37° SE 19:37:08 10° ENE visible
03 Aug - 21:09:46 10° SW 21:15:05 33° WNW 21:19:57 10° N visible
